User: anonymous
Location: Caltech
(34.1382°N, 118.1253°W)
Time: 22:48:21
(UTC-07:00)
Language:

RESURS DK-1 - Orbit

View from above orbital plane
View from above orbital plane
View from above satellite
View from above satellite

Ground track
Ground track

The orbit data is extracted from the following two-line orbital elements,

1 29228U 06021A   14261.88912919  .00000875  00000-0  76253-4 0  2331
2 29228 069.9374 126.2793 0001782 070.4873 289.6435 15.00810164457638
Epoch (UTC): 18 September 2014 21:20:20
Eccentricity: 0.0001782
inclination: 69.9374°
perigee height: 563 km
apogee height: 565 km
right ascension of ascending node: 126.2793°
argument of perigee: 70.4873°
revolutions per day: 15.00810164
mean anomaly at epoch: 289.6435°
orbit number at epoch: 45763

The dashed part of the orbit path shows where the satellite is in the earth's shadow,  

DLR